Regional Weather Roundup
Issued by NWS

Home | Current Version | Previous Version | Text Only | Print | Product List | Glossary Off
Versions: 1 2 3 4 5 6 7 8 9 10 11 12 13 14 15 16 17 18 19 20 21 22 23 24 25 26 27 28 29 30 31 32 33 34 35 36 37 38 39 40 41 42 43 44 45 46 47 48 49 50

000
ASUS43 KDMX 210007
RWRIA

WEATHER ROUNDUP FOR IOWA
NATIONAL WEATHER SERVICE DES MOINES IA
600 PM CST THU NOV 20 2014

NOTE: "FAIR" INDICATES FEW OR NO CLOUDS BELOW 12,000 FEET WITH NO
SIGNIFICANT WEATHER AND/OR OBSTRUCTIONS TO VISIBILITY.

* - THESE STATIONS ARE NOT NWS STATIONS...THUS NOT UNDER NWS
QUALITY CONTROL.  THEY ALSO DO NOT REPORT WEATHER SUCH
AS PRECIPITATION OR FOG.

IAZ001>003-012>014-020>022-031>034-043>046-210100-
   NORTHWEST IOWA

CITY           SKY/WX    TMP DP  RH WIND       PRES   REMARKS
CARROLL *      PTCLDY    14   9  79 CALM      30.22S
CHEROKEE *     PTCLDY    13   9  83 E3        30.21R
DENISON *      CLEAR     18  10  73 E3        30.19S
LE MARS *      CLEAR     14  10  85 CALM      30.21R
ORANGE CITY *  CLEAR     19  10  68 CALM      30.19R
SHELDON *      CLEAR      7   1  78 NE3       30.18S
SIOUX CITY     PTCLDY    18  11  74 CALM      30.21S
6HR MIN TEMP:  17; 6HR MAX TEMP:  29;

SPENCER        PTCLDY     7   2  80 W5        30.20R WCI  -2
6HR MIN TEMP:   6; 6HR MAX TEMP:  20;

STORM LAKE *   CLEAR     16   9  73 CALM      30.20R
$$

IAZ055>058-069>071-079>083-090>094-210100-
   SOUTHWEST IOWA

CITY           SKY/WX    TMP DP  RH WIND       PRES   REMARKS
ATLANTIC *     PTCLDY    16  10  79 CALM      30.22R
AUDUBON *      CLEAR     14   7  73 CALM      30.21S
CLARINDA *     CLEAR     23  18  80 CALM      30.25R
COUNCIL BLFS * CLEAR     23  18  80 NE6       30.20R WCI  16
CRESTON *      CLEAR     23  14  68 N5        30.21S WCI  17
HARLAN  *      CLEAR     18  12  79 CALM      30.25R
LAMONI         CLEAR     24  15  68 N3        30.22R
6HR MIN TEMP:  23; 6HR MAX TEMP:  29;

RED OAK *      CLEAR     21  16  79 N3        30.23R
SHENANDOAH *   CLEAR     21  18  86 NE8       30.24R WCI  12
$$

IAZ047>049-059>061-072>074-084-210100-
   CENTRAL IOWA

CITY           SKY/WX    TMP DP  RH WIND       PRES   REMARKS
AMES           CLEAR     17   9  70 NW3       30.23S
6HR MIN TEMP:  17; 6HR MAX TEMP:  25;

ANKENY *       CLEAR     21  12  68 CALM      30.24S
CHARITON *     PTCLDY    23  12  63 N6        30.23R WCI  16
DES MOINES     CLEAR     24  12  60 N3        30.24R
6HR MIN TEMP:  23; 6HR MAX TEMP:  30;

GRINNELL*      CLEAR     18  10  73 CALM      30.23R
KNOXVILLE *    CLEAR     23  10  58 N6        30.22S WCI  16
MARSHALLTOWN   CLEAR     14   7  73 NW6       30.22R WCI   5
6HR MIN TEMP:  13; 6HR MAX TEMP:  24;

PELLA *        CLEAR     20  12  71 CALM      30.25R
PERRY *          N/A     19  12  73 CALM      30.23S
$$

IAZ004>006-015-016-023>025-035-036-210100-
   NORTH CENTRAL IOWA

CITY           SKY/WX    TMP DP  RH WIND       PRES   REMARKS
ALGONA *       CLEAR     12   7  79 W3        30.21S
CLARION *      CLEAR     10   5  79 CALM      30.22R
ESTHERVILLE    PTCLDY     8   3  80 NW3       30.19R
6HR MIN TEMP:   8; 6HR MAX TEMP:  19;

FORT DODGE *   CLEAR     12   1  62 CALM      30.22S
MASON CITY       N/A     10   4  76 SW3       30.22R
6HR MIN TEMP:   9; 6HR MAX TEMP:  20;

FOREST CITY *  CLEAR     12   9  85 CALM      30.20R
IOWA FALLS *     N/A     10   5  79 W5        30.22S WCI   2
$$

IAZ007>011-017>019-026>030-037>042-050>054-066-210100-
   NORTHEAST IOWA

CITY           SKY/WX    TMP DP  RH WIND       PRES   REMARKS
CEDAR RAPIDS   CLEAR     14   8  77 NW7       30.22R WCI   4
6HR MIN TEMP:  14; 6HR MAX TEMP:  25;

CHARLES CITY * CLEAR     10   3  72 NW8       30.21S WCI  -1
CLINTON *      CLEAR     18   5  57 NW10      30.24R WCI   6
DECORAH *      CLEAR     14   5  67 VRB6      30.18R WCI   5
DUBUQUE        CLEAR     15   5  64 NW10      30.19R WCI   2
6HR MIN TEMP:  14; 6HR MAX TEMP:  22;

MONTICELLO *   CLEAR     18   7  62 NW9       30.22R WCI   6
OELWEIN *      CLEAR     10   3  72 NW8       30.21R WCI  -1
WATERLOO       CLEAR     16   7  67 NW5       30.23R WCI   9
6HR MIN TEMP:  15; 6HR MAX TEMP:  23;

$$

IAZ064-065-067-068-078-210100-
   EAST CENTRAL IOWA

CITY           SKY/WX    TMP DP  RH WIND       PRES   REMARKS
DAVENPORT      CLEAR     18   7  62 NW9       30.23R WCI   7
6HR MIN TEMP:  18; 6HR MAX TEMP:  28;

IOWA CITY      CLEAR     21  10  62 NW8       30.26R WCI  11
6HR MIN TEMP:  21; 6HR MAX TEMP:  28;

MT. PLEASANT * CLEAR     21  10  62 NW7       30.24R WCI  13
MUSCATINE *    CLEAR     21  10  63 NW6       30.26R WCI  14
QUAD CITIES    CLEAR     22   8  55 NW10      30.23R WCI  11
6HR MIN TEMP:  22; 6HR MAX TEMP:  29;

$$

IAZ062-063-075>077-085>089-095>099-210100-
   SOUTHEAST IOWA

CITY           SKY/WX    TMP DP  RH WIND       PRES   REMARKS
BURLINGTON     CLEAR     25  10  53 NW3       30.24R
6HR MIN TEMP:  25; 6HR MAX TEMP:  32;

FAIRFIELD *    CLEAR     18   9  68 N8        30.24S WCI   7
FORT MADISON * CLEAR     25  12  58 NW5       30.25R WCI  19
KEOKUK *       CLEAR     27  12  54 CALM      30.24R
OSKALOOSA *      N/A     20  11  68 NW5       30.25R WCI  13
CENTERVILLE *  CLEAR     14   9  79 NW3       30.24R
OTTUMWA        CLEAR     16   8  71 N7        30.24R WCI   6
6HR MIN TEMP:  16; 6HR MAX TEMP:  30;

WASHINGTON *   CLEAR     21  12  68 NW7       30.24R WCI  13
$$

ABBREVIATIONS USED IN REMARKS
   TC - TEMPERATURES IN CELSIUS
  WCI - WIND CHILL INDEX
   HX - HEAT INDEX
  VSB - VISIBILITY
$$




USA.gov is the U.S. government's official web portal to all federal, state and local government web resources and services.